Location: Aurora Center
(43.5271°N, 98.5894°W)
Time: 09:02:00
(UTC-05:00)

S-56A Canister/Altair - All Passes

Search period start: 14 July 2024 00:00
Search period end: 24 July 2024 00:00
Orbit: 638 x 2488 km, 38.9° (Epoch: 14 July)

Date Brightness Start Highest point End Pass type
(mag) Time Alt. Az. Time Alt. Az. Time Alt. Az.
14 Jul - 14:06:24 10° SSE 14:07:57 11° SSE 14:09:27 10° SE daylight
14 Jul - 16:06:39 10° SW 16:10:47 35° SSE 16:15:03 10° E daylight
14 Jul - 18:09:28 10° WSW 18:13:52 50° S 18:19:18 10° ESE daylight
14 Jul - 20:12:37 10° W 20:17:13 32° SSW 20:23:19 10° SE daylight
14 Jul - 22:18:17 10° SW 22:20:48 12° SSW 22:23:38 10° S visible
15 Jul - 15:33:15 10° SW 15:37:22 32° SSE 15:41:24 10° E daylight
15 Jul - 17:36:06 10° WSW 17:40:25 50° S 17:45:28 10° ESE daylight
15 Jul - 19:39:15 10° W 19:43:40 33° SSW 19:49:24 10° SE daylight
15 Jul - 21:44:23 10° WSW 21:47:10 13° SSW 21:50:21 10° S visible
16 Jul - 14:59:47 10° SW 15:03:57 29° SSE 15:07:50 10° E daylight
16 Jul - 17:02:40 10° WSW 17:06:58 49° S 17:11:43 10° ESE daylight
16 Jul - 19:05:54 10° W 19:10:10 34° SSW 19:15:33 10° SE daylight
16 Jul - 21:10:36 10° WSW 21:13:32 14° SSW 21:16:56 10° S daylight
17 Jul - 14:26:17 10° SW 14:30:31 26° SSE 14:34:17 10° ESE daylight
17 Jul - 16:29:12 10° WSW 16:33:33 48° S 16:38:03 10° ESE daylight
17 Jul - 18:32:30 10° W 18:36:41 36° SSW 18:41:45 10° SE daylight
17 Jul - 20:36:55 10° WSW 20:39:57 15° SSW 20:43:29 10° S daylight
18 Jul - 13:52:43 10° SSW 13:57:04 24° SSE 14:00:47 10° ESE daylight
18 Jul - 15:55:39 10° WSW 16:00:07 46° S 16:04:28 10° ESE daylight
18 Jul - 17:59:04 10° W 18:03:13 38° SSW 18:08:01 10° SE daylight
18 Jul - 20:03:18 10° WSW 20:06:23 16° SSW 20:10:00 10° S daylight
19 Jul - 13:19:06 10° SSW 13:23:34 23° SSE 13:27:17 10° ESE daylight
19 Jul - 15:22:01 10° WSW 15:26:42 45° S 15:30:57 10° E daylight
19 Jul - 17:25:36 10° W 17:29:47 40° S 17:34:22 10° ESE daylight
19 Jul - 19:29:41 10° WSW 19:32:52 17° SSW 19:36:32 10° SSE daylight
20 Jul - 12:45:27 10° SSW 12:50:03 21° SSE 12:53:48 10° ESE daylight
20 Jul - 14:48:19 10° WSW 14:53:14 43° S 14:57:29 10° E daylight
20 Jul - 16:52:04 10° W 16:56:21 43° S 17:00:46 10° ESE daylight
20 Jul - 18:56:06 10° WSW 18:59:22 19° SSW 19:03:04 10° SSE daylight
21 Jul - 12:11:46 10° SSW 12:16:29 20° SSE 12:20:19 10° ESE daylight
21 Jul - 14:14:32 10° WSW 14:19:47 42° S 14:24:04 10° E daylight
21 Jul - 16:18:28 10° W 16:22:55 45° S 16:27:15 10° ESE daylight
21 Jul - 18:22:31 10° WSW 18:25:53 21° SSW 18:29:38 10° SSE daylight
22 Jul - 11:38:02 10° SSW 11:42:53 19° SSE 11:46:48 10° ESE daylight
22 Jul - 13:40:41 10° SW 13:46:17 41° SSE 13:50:41 10° E daylight
22 Jul - 15:44:46 10° W 15:49:29 47° S 15:53:46 10° ESE daylight
22 Jul - 17:48:53 10° WSW 17:52:26 23° SSW 17:56:13 10° SSE daylight
23 Jul - 11:04:19 10° SSW 11:09:15 18° SSE 11:13:14 10° ESE daylight
23 Jul - 13:06:44 10° SW 13:12:46 39° SSE 13:17:19 10° E daylight
23 Jul - 15:11:00 10° WSW 15:16:02 49° S 15:20:20 10° ESE daylight
23 Jul - 17:15:15 10° W 17:19:00 26° SSW 17:22:51 10° SE daylight
